STARLINK-32077 (60344 NORAD) Tracking and Keplerian Element Data

This shows tracking and keplerian element data for the satellite.

Feedback or suggestion? Click here.




ElementValue
Catalog60344
NameSTARLINK-32077
Epoch Orbit1113
Epoch Day286.75587034
Epoch Year2024
RAAN298.0727
Inclination53.1614
Eccentricity0.0001249
Argument of Perigee109.7011
Mean Anonmoly250.4124
Mean Motion15.30194059
Decay Rate-5.26E-06
L11 60344U 24136R 24286.75587034 -.00000526 00000+0 -56328-5 0 9997
L22 60344 53.1614 298.0727 0001249 109.7011 250.4124 15.30194059 11130



Live tracking and technical data element details for STARLINK-32077 (NORAD 60344). STARLINK-32077 can be tracked NOW for your location showing map with azimuth and elevation plus other details from your city location.







IsCatalogInMostPopularTable: catalog: 60344, numindb: 8
Update: records affected: 1



GetName: 60344 STARLINK-32077

Hit Count: updated at: Tue, 03 Dec 2024 01:53:21 GMT